Time,TemperatureF,DewpointF,PressureIn,WindDirection,WindDirectionDegrees,WindSpeedMPH,WindSpeedGustMPH,Humidity,HourlyPrecipIn,Conditions,Clouds,dailyrainin,SoftwareType,DateUTC
2013-02-03 00:02:00,31.5,28.6,30.28,SW,228,0.0,0.0,89,0.00,,---,0.00,VWS V14.01,2013-02-03 06:02:00,
2013-02-03 00:07:00,31.5,28.6,30.28,SW,228,0.0,0.0,89,0.00,,---,0.00,VWS V14.01,2013-02-03 06:07:00,
2013-02-03 00:12:00,31.5,28.6,30.28,SW,228,0.0,0.0,89,0.00,,---,0.00,VWS V14.01,2013-02-03 06:12:00,
2013-02-03 00:17:00,31.3,28.7,30.28,SW,228,0.0,0.0,90,0.00,,---,0.00,VWS V14.01,2013-02-03 06:17:00,
2013-02-03 00:22:00,31.2,28.3,30.28,SW,228,0.0,0.0,89,0.00,,---,0.00,VWS V14.01,2013-02-03 06:22:00,
2013-02-03 00:27:00,31.0,28.1,30.27,SW,228,0.0,0.0,89,0.00,,---,0.00,VWS V14.01,2013-02-03 06:27:00,
2013-02-03 00:32:00,31.0,28.4,30.27,SW,228,0.0,0.0,90,0.00,,---,0.00,VWS V14.01,2013-02-03 06:32:00,
2013-02-03 00:37:00,31.0,28.4,30.27,SW,228,0.0,0.0,90,0.00,,---,0.00,VWS V14.01,2013-02-03 06:37:00,
2013-02-03 00:42:00,30.9,28.3,30.27,SW,228,0.0,0.0,90,0.00,,---,0.00,VWS V14.01,2013-02-03 06:42:00,
2013-02-03 00:47:00,30.6,27.8,30.27,SW,228,0.0,0.0,89,0.00,,---,0.00,VWS V14.01,2013-02-03 06:47:00,
2013-02-03 00:52:00,30.4,27.8,30.27,SW,228,0.0,0.0,90,0.00,,---,0.00,VWS V14.01,2013-02-03 06:52:00,
2013-02-03 00:57:00,30.3,27.7,30.27,SW,228,0.0,0.0,90,0.00,,---,0.00,VWS V14.01,2013-02-03 06:57:00,
2013-02-03 01:02:00,30.1,27.5,30.27,SW,228,0.0,0.0,90,0.00,,---,0.00,VWS V14.01,2013-02-03 07:02:00,
2013-02-03 01:07:00,30.0,27.4,30.27,SW,228,0.0,0.0,90,0.00,,---,0.00,VWS V14.01,2013-02-03 07:07:00,
2013-02-03 01:12:00,30.0,27.7,30.27,SW,228,0.0,0.0,91,0.00,,---,0.00,VWS V14.01,2013-02-03 07:12:00,
2013-02-03 01:17:00,30.0,27.7,30.27,SW,228,0.0,0.0,91,0.00,,---,0.00,VWS V14.01,2013-02-03 07:17:00,
2013-02-03 01:22:00,29.8,27.5,30.26,SW,228,0.0,0.0,91,0.00,,---,0.00,VWS V14.01,2013-02-03 07:22:00,
2013-02-03 01:27:00,29.8,27.5,30.26,SW,228,0.0,0.0,91,0.00,,---,0.00,VWS V14.01,2013-02-03 07:27:00,
2013-02-03 01:32:00,29.8,27.5,30.26,SW,228,0.0,0.0,91,0.00,,---,0.00,VWS V14.01,2013-02-03 07:32:00,
2013-02-03 01:36:00,29.8,27.8,30.26,SW,228,0.0,0.0,92,0.00,,---,0.00,VWS V14.01,2013-02-03 07:36:00,
2013-02-03 01:41:00,29.8,27.8,30.27,SW,228,0.0,0.0,92,0.00,,---,0.00,VWS V14.01,2013-02-03 07:41:00,
2013-02-03 01:46:00,29.8,27.8,30.27,SW,228,0.0,0.0,92,0.00,,---,0.00,VWS V14.01,2013-02-03 07:46:00,
2013-02-03 01:51:00,30.0,28.0,30.26,SW,228,0.0,0.0,92,0.00,,---,0.00,VWS V14.01,2013-02-03 07:51:00,
2013-02-03 01:56:00,29.8,27.8,30.26,SW,228,0.0,0.0,92,0.00,,---,0.00,VWS V14.01,2013-02-03 07:56:00,
2013-02-03 02:01:00,29.7,27.7,30.26,SW,228,0.0,0.0,92,0.00,,---,0.00,VWS V14.01,2013-02-03 08:01:00,
2013-02-03 02:06:00,29.7,27.7,30.26,SW,228,0.0,0.0,92,0.00,,---,0.00,VWS V14.01,2013-02-03 08:06:00,
2013-02-03 02:11:00,29.7,27.7,30.26,SW,228,0.0,0.0,92,0.00,,---,0.00,VWS V14.01,2013-02-03 08:11:00,
2013-02-03 02:16:00,29.7,27.7,30.26,SW,228,0.0,0.0,92,0.00,,---,0.00,VWS V14.01,2013-02-03 08:16:00,
2013-02-03 02:21:00,29.7,27.7,30.26,SW,228,0.0,0.0,92,0.00,,---,0.00,VWS V14.01,2013-02-03 08:21:00,
2013-02-03 02:26:00,29.7,27.7,30.26,SW,228,0.0,0.0,92,0.00,,---,0.00,VWS V14.01,2013-02-03 08:26:00,
2013-02-03 02:31:00,29.5,27.5,30.26,SW,228,0.0,0.0,92,0.00,,---,0.00,VWS V14.01,2013-02-03 08:31:00,
2013-02-03 02:36:00,29.5,27.5,30.25,SW,228,0.0,0.0,92,0.00,,---,0.00,VWS V14.01,2013-02-03 08:36:00,
2013-02-03 02:41:00,29.4,27.4,30.25,SW,228,0.0,0.0,92,0.00,,---,0.00,VWS V14.01,2013-02-03 08:41:00,
2013-02-03 02:46:00,29.4,27.4,30.25,SW,228,0.0,0.0,92,0.00,,---,0.00,VWS V14.01,2013-02-03 08:46:00,
2013-02-03 02:51:00,29.1,27.1,30.25,SW,228,0.0,0.0,92,0.00,,---,0.00,VWS V14.01,2013-02-03 08:51:00,
2013-02-03 02:56:00,29.1,27.1,30.25,SW,228,0.0,0.0,92,0.00,,---,0.00,VWS V14.01,2013-02-03 08:56:00,
2013-02-03 03:01:00,29.0,27.0,30.25,SW,228,0.0,0.0,92,0.00,,---,0.00,VWS V14.01,2013-02-03 09:01:00,
2013-02-03 03:06:00,28.8,26.8,30.25,SW,228,0.0,0.0,92,0.00,,---,0.00,VWS V14.01,2013-02-03 09:06:00,
2013-02-03 03:11:00,28.7,26.7,30.25,SW,228,0.0,0.0,92,0.00,,---,0.00,VWS V14.01,2013-02-03 09:11:00,
2013-02-03 03:16:00,28.8,27.0,30.25,SW,228,0.0,0.0,93,0.00,,---,0.00,VWS V14.01,2013-02-03 09:16:00,
2013-02-03 03:21:00,28.8,27.0,30.25,SW,228,0.0,0.0,93,0.00,,---,0.00,VWS V14.01,2013-02-03 09:21:00,
2013-02-03 03:26:00,28.8,27.0,30.25,SW,228,0.0,0.0,93,0.00,,---,0.00,VWS V14.01,2013-02-03 09:26:00,
2013-02-03 03:31:00,28.8,27.0,30.25,SW,228,0.0,0.0,93,0.00,,---,0.00,VWS V14.01,2013-02-03 09:31:00,
2013-02-03 03:36:00,29.0,27.2,30.24,SW,228,0.0,0.0,93,0.00,,---,0.00,VWS V14.01,2013-02-03 09:36:00,
2013-02-03 03:41:00,29.1,27.3,30.25,SW,228,0.0,0.0,93,0.00,,---,0.00,VWS V14.01,2013-02-03 09:41:00,
2013-02-03 03:46:00,29.1,27.3,30.24,SW,228,0.0,0.0,93,0.00,,---,0.00,VWS V14.01,2013-02-03 09:46:00,
2013-02-03 03:51:00,29.1,27.3,30.24,SW,228,0.0,0.0,93,0.00,,---,0.00,VWS V14.01,2013-02-03 09:51:00,
2013-02-03 03:56:00,29.1,27.6,30.24,SW,228,0.0,0.0,94,0.00,,---,0.00,VWS V14.01,2013-02-03 09:56:00,
2013-02-03 04:01:00,29.1,27.3,30.25,SW,228,0.0,0.0,93,0.00,,---,0.00,VWS V14.01,2013-02-03 10:01:00,
2013-02-03 04:06:00,29.1,27.3,30.24,SW,228,0.0,0.0,93,0.00,,---,0.00,VWS V14.01,2013-02-03 10:06:00,
2013-02-03 04:11:00,29.1,27.3,30.24,SW,228,0.0,0.0,93,0.00,,---,0.00,VWS V14.01,2013-02-03 10:11:00,
2013-02-03 04:16:00,29.0,27.2,30.24,SW,228,0.0,0.0,93,0.00,,---,0.00,VWS V14.01,2013-02-03 10:16:00,
2013-02-03 04:21:00,29.0,27.2,30.24,SW,228,0.0,0.0,93,0.00,,---,0.00,VWS V14.01,2013-02-03 10:21:00,
2013-02-03 04:26:00,29.1,27.6,30.24,SW,228,0.0,0.0,94,0.00,,---,0.00,VWS V14.01,2013-02-03 10:26:00,
2013-02-03 04:31:00,29.1,27.6,30.24,SW,228,0.0,0.0,94,0.00,,---,0.00,VWS V14.01,2013-02-03 10:31:00,
2013-02-03 04:36:00,29.1,27.6,30.24,SW,228,0.0,0.0,94,0.00,,---,0.00,VWS V14.01,2013-02-03 10:36:00,
2013-02-03 04:41:00,29.7,28.5,30.24,SW,228,0.0,0.0,95,0.00,,---,0.00,VWS V14.01,2013-02-03 10:41:00,
2013-02-03 04:46:00,30.1,28.6,30.24,SW,228,0.0,0.0,94,0.00,,---,0.00,VWS V14.01,2013-02-03 10:46:00,
2013-02-03 04:51:00,30.1,28.6,30.24,SW,228,0.0,0.0,94,0.00,,---,0.00,VWS V14.01,2013-02-03 10:51:00,
2013-02-03 04:56:00,30.3,28.8,30.24,SW,228,0.0,0.0,94,0.00,,---,0.00,VWS V14.01,2013-02-03 10:56:00,
2013-02-03 05:01:00,30.6,29.1,30.24,SW,228,0.0,0.0,94,0.00,,---,0.00,VWS V14.01,2013-02-03 11:01:00,
2013-02-03 05:06:00,30.9,29.4,30.24,SW,228,0.0,0.0,94,0.00,,---,0.00,VWS V14.01,2013-02-03 11:06:00,
2013-02-03 05:11:00,31.2,29.7,30.24,SW,228,0.0,0.0,94,0.00,,---,0.00,VWS V14.01,2013-02-03 11:11:00,
2013-02-03 05:16:00,31.5,29.7,30.24,SW,228,0.0,0.0,93,0.00,,---,0.00,VWS V14.01,2013-02-03 11:16:00,
2013-02-03 05:21:00,31.6,29.8,30.24,SW,228,0.0,0.0,93,0.00,,---,0.00,VWS V14.01,2013-02-03 11:21:00,
2013-02-03 05:26:00,31.8,30.0,30.24,SW,228,0.0,0.0,93,0.00,,---,0.00,VWS V14.01,2013-02-03 11:26:00,
2013-02-03 05:31:00,31.8,29.8,30.24,SW,228,0.0,0.0,92,0.00,,---,0.00,VWS V14.01,2013-02-03 11:31:00,
2013-02-03 05:36:00,31.8,29.8,30.24,SW,228,0.0,0.0,92,0.00,,---,0.00,VWS V14.01,2013-02-03 11:36:00,
2013-02-03 05:41:00,31.8,29.8,30.24,SW,228,0.0,0.0,92,0.00,,---,0.00,VWS V14.01,2013-02-03 11:41:00,
2013-02-03 05:46:00,32.2,30.1,30.24,SW,228,0.0,0.0,92,0.00,,---,0.00,VWS V14.01,2013-02-03 11:46:00,
2013-02-03 05:51:00,32.7,30.6,30.24,SW,228,0.0,0.0,92,0.00,,---,0.00,VWS V14.01,2013-02-03 11:51:00,
2013-02-03 05:56:00,32.8,30.5,30.24,SW,228,0.0,0.0,91,0.00,,---,0.00,VWS V14.01,2013-02-03 11:56:00,
2013-02-03 06:01:00,32.8,30.2,30.25,SW,228,0.0,0.0,90,0.00,,---,0.00,VWS V14.01,2013-02-03 12:01:00,
2013-02-03 06:06:00,33.1,30.5,30.25,SW,228,0.0,0.0,90,0.00,,---,0.00,VWS V14.01,2013-02-03 12:06:00,
2013-02-03 06:11:00,33.1,30.2,30.25,SW,228,0.0,0.0,89,0.00,,---,0.00,VWS V14.01,2013-02-03 12:11:00,
2013-02-03 06:17:00,33.2,30.0,30.25,WSW,243,0.0,0.0,88,0.00,,---,0.00,VWS V14.01,2013-02-03 12:17:00,
2013-02-03 06:22:00,33.5,30.3,30.25,WSW,243,0.0,0.0,88,0.00,,---,0.00,VWS V14.01,2013-02-03 12:22:00,
2013-02-03 06:27:00,33.8,30.4,30.25,WSW,242,0.0,0.0,87,0.00,,---,0.00,VWS V14.01,2013-02-03 12:27:00,
2013-02-03 06:32:00,33.8,30.4,30.25,WSW,243,0.0,0.0,87,0.00,,---,0.00,VWS V14.01,2013-02-03 12:32:00,
2013-02-03 06:37:00,33.8,30.4,30.25,WSW,243,0.0,0.0,87,0.00,,---,0.00,VWS V14.01,2013-02-03 12:37:00,
2013-02-03 06:42:00,34.1,30.9,30.26,WSW,245,2.0,3.0,88,0.00,,---,0.00,VWS V14.01,2013-02-03 12:42:00,
2013-02-03 06:47:00,34.9,30.9,30.26,WSW,245,1.0,1.0,85,0.00,,---,0.00,VWS V14.01,2013-02-03 12:47:00,
2013-02-03 06:52:00,35.5,31.5,30.26,WSW,255,0.0,3.0,85,0.00,,---,0.00,VWS V14.01,2013-02-03 12:52:00,
2013-02-03 06:57:00,36.2,31.2,30.27,WSW,256,0.0,0.0,82,0.00,,---,0.00,VWS V14.01,2013-02-03 12:57:00,
2013-02-03 07:02:00,37.2,31.3,30.27,WSW,256,0.0,2.0,79,0.00,,---,0.00,VWS V14.01,2013-02-03 13:02:00,
2013-02-03 07:07:00,38.0,31.4,30.27,West,260,0.0,2.0,77,0.00,,---,0.00,VWS V14.01,2013-02-03 13:07:00,
2013-02-03 07:12:00,38.5,31.6,30.27,West,263,0.0,2.0,76,0.00,,---,0.00,VWS V14.01,2013-02-03 13:12:00,
2013-02-03 07:17:00,38.3,31.1,30.27,West,263,0.0,0.0,75,0.00,,---,0.00,VWS V14.01,2013-02-03 13:17:00,
2013-02-03 07:22:00,37.9,31.4,30.27,West,263,0.0,0.0,77,0.00,,---,0.00,VWS V14.01,2013-02-03 13:22:00,
2013-02-03 07:27:00,37.3,31.1,30.27,West,263,0.0,0.0,78,0.00,,---,0.00,VWS V14.01,2013-02-03 13:27:00,
2013-02-03 07:32:00,36.8,30.9,30.27,West,263,0.0,0.0,79,0.00,,---,0.00,VWS V14.01,2013-02-03 13:32:00,
2013-02-03 07:37:00,36.3,30.7,30.27,West,263,0.0,0.0,80,0.00,,---,0.00,VWS V14.01,2013-02-03 13:37:00,
2013-02-03 07:42:00,36.2,30.9,30.27,West,263,0.0,0.0,81,0.00,,---,0.00,VWS V14.01,2013-02-03 13:42:00,
2013-02-03 07:47:00,36.0,31.0,30.27,West,263,0.0,0.0,82,0.00,,---,0.00,VWS V14.01,2013-02-03 13:47:00,
2013-02-03 07:52:00,36.0,31.0,30.28,West,263,0.0,0.0,82,0.00,,---,0.00,VWS V14.01,2013-02-03 13:52:00,
2013-02-03 07:57:00,36.3,31.3,30.28,West,263,0.0,0.0,82,0.00,,---,0.00,VWS V14.01,2013-02-03 13:57:00,
2013-02-03 08:02:00,36.9,32.2,30.29,West,263,0.0,0.0,83,0.00,,---,0.00,VWS V14.01,2013-02-03 14:02:00,
2013-02-03 08:07:00,37.6,32.3,30.29,West,263,0.0,0.0,81,0.00,,---,0.00,VWS V14.01,2013-02-03 14:07:00,
2013-02-03 08:12:00,38.9,33.3,30.29,West,263,0.0,0.0,80,0.00,,---,0.00,VWS V14.01,2013-02-03 14:12:00,
2013-02-03 08:17:00,39.5,33.5,30.30,West,263,0.0,0.0,79,0.00,,---,0.00,VWS V14.01,2013-02-03 14:17:00,
2013-02-03 08:22:00,41.2,35.2,30.29,West,263,0.0,0.0,79,0.00,,---,0.00,VWS V14.01,2013-02-03 14:22:00,
2013-02-03 08:27:00,41.9,33.2,30.30,West,263,0.0,0.0,71,0.00,,---,0.00,VWS V14.01,2013-02-03 14:27:00,
2013-02-03 08:32:00,42.9,33.1,30.30,NW,318,3.0,5.0,68,0.00,,---,0.00,VWS V14.01,2013-02-03 14:32:00,
2013-02-03 08:37:00,43.5,32.9,30.30,West,272,2.0,6.0,66,0.00,,---,0.00,VWS V14.01,2013-02-03 14:37:00,
2013-02-03 08:42:00,44.2,33.6,30.30,WNW,297,2.0,7.0,66,0.00,,---,0.00,VWS V14.01,2013-02-03 14:42:00,
2013-02-03 08:47:00,44.8,34.2,30.30,West,276,2.0,6.0,66,0.00,,---,0.00,VWS V14.01,2013-02-03 14:47:00,
2013-02-03 08:52:00,45.4,34.0,30.30,West,269,2.0,6.0,64,0.00,,---,0.00,VWS V14.01,2013-02-03 14:52:00,
2013-02-03 08:57:00,46.0,34.5,30.30,West,275,6.0,6.0,64,0.00,,---,0.00,VWS V14.01,2013-02-03 14:57:00,
2013-02-03 09:02:00,46.4,34.1,30.30,West,266,6.0,6.0,62,0.00,,---,0.00,VWS V14.01,2013-02-03 15:02:00,
2013-02-03 09:07:00,47.3,35.0,30.30,West,272,2.0,5.0,62,0.00,,---,0.00,VWS V14.01,2013-02-03 15:07:00,
2013-02-03 09:12:00,47.7,34.9,30.30,West,270,3.0,8.0,61,0.00,,---,0.00,VWS V14.01,2013-02-03 15:12:00,
2013-02-03 09:17:00,48.6,34.9,30.30,West,260,3.0,7.0,59,0.00,,---,0.00,VWS V14.01,2013-02-03 15:17:00,
2013-02-03 09:22:00,49.4,34.4,30.30,West,270,5.0,6.0,56,0.00,,---,0.00,VWS V14.01,2013-02-03 15:22:00,
2013-02-03 09:27:00,49.8,34.3,30.29,West,280,3.0,8.0,55,0.00,,---,0.00,VWS V14.01,2013-02-03 15:27:00,
2013-02-03 09:32:00,50.5,35.0,30.29,West,273,1.0,5.0,55,0.00,,---,0.00,VWS V14.01,2013-02-03 15:32:00,
2013-02-03 09:37:00,51.3,34.8,30.29,WNW,296,1.0,8.0,53,0.00,,---,0.00,VWS V14.01,2013-02-03 15:37:00,
2013-02-03 09:42:00,51.6,35.0,30.29,West,269,3.0,8.0,53,0.00,,---,0.00,VWS V14.01,2013-02-03 15:42:00,
2013-02-03 09:47:00,52.0,34.0,30.29,West,270,6.0,8.0,50,0.00,,---,0.00,VWS V14.01,2013-02-03 15:47:00,
2013-02-03 09:52:00,52.8,34.7,30.29,WNW,293,3.0,7.0,50,0.00,,---,0.00,VWS V14.01,2013-02-03 15:52:00,
2013-02-03 09:57:00,53.6,35.4,30.29,WNW,294,2.0,6.0,50,0.00,,---,0.00,VWS V14.01,2013-02-03 15:57:00,
2013-02-03 10:02:00,54.2,36.0,30.29,WNW,301,3.0,8.0,50,0.00,,---,0.00,VWS V14.01,2013-02-03 16:02:00,
2013-02-03 10:07:00,54.7,33.2,30.29,North,349,5.0,5.0,44,0.00,,---,0.00,VWS V14.01,2013-02-03 16:07:00,
2013-02-03 10:12:00,54.8,31.6,30.30,North,355,3.0,7.0,41,0.00,,---,0.00,VWS V14.01,2013-02-03 16:12:00,
2013-02-03 10:17:00,55.6,31.1,30.30,WNW,287,5.0,7.0,39,0.00,,---,0.00,VWS V14.01,2013-02-03 16:17:00,
2013-02-03 10:22:00,55.9,32.0,30.30,West,276,2.0,5.0,40,0.00,,---,0.00,VWS V14.01,2013-02-03 16:22:00,
2013-02-03 10:27:00,56.0,31.4,30.30,NW,308,2.0,8.0,39,0.00,,---,0.00,VWS V14.01,2013-02-03 16:27:00,
2013-02-03 10:32:00,56.2,32.2,30.30,WNW,301,1.0,5.0,40,0.00,,---,0.00,VWS V14.01,2013-02-03 16:32:00,
2013-02-03 10:37:00,56.6,32.0,30.30,NW,321,3.0,5.0,39,0.00,,---,0.00,VWS V14.01,2013-02-03 16:37:00,
2013-02-03 10:42:00,56.9,32.2,30.30,NNW,345,2.0,6.0,39,0.00,,---,0.00,VWS V14.01,2013-02-03 16:42:00,
2013-02-03 10:47:00,57.0,32.3,30.30,WNW,300,1.0,6.0,39,0.00,,---,0.00,VWS V14.01,2013-02-03 16:47:00,
2013-02-03 10:52:00,57.5,32.8,30.30,North,354,3.0,6.0,39,0.00,,---,0.00,VWS V14.01,2013-02-03 16:52:00,
2013-02-03 10:57:00,57.6,32.8,30.30,WNW,301,3.0,11.0,39,0.00,,---,0.00,VWS V14.01,2013-02-03 16:57:00,
2013-02-03 11:02:00,57.8,32.4,30.30,North,351,0.0,5.0,38,0.00,,---,0.00,VWS V14.01,2013-02-03 17:02:00,
2013-02-03 11:07:00,57.8,32.4,30.29,NNE,18,2.0,5.0,38,0.00,,---,0.00,VWS V14.01,2013-02-03 17:07:00,
2013-02-03 11:12:00,58.4,33.6,30.29,WNW,296,7.0,7.0,39,0.00,,---,0.00,VWS V14.01,2013-02-03 17:12:00,
2013-02-03 11:17:00,58.6,33.1,30.29,NNE,13,5.0,8.0,38,0.00,,---,0.00,VWS V14.01,2013-02-03 17:17:00,
2013-02-03 11:22:00,59.2,33.6,30.29,West,272,5.0,5.0,38,0.00,,---,0.00,VWS V14.01,2013-02-03 17:22:00,
2013-02-03 11:27:00,59.8,33.5,30.28,NNE,16,7.0,8.0,37,0.00,,---,0.00,VWS V14.01,2013-02-03 17:27:00,
2013-02-03 11:32:00,59.6,29.7,30.28,NNW,348,3.0,3.0,32,0.00,,---,0.00,VWS V14.01,2013-02-03 17:32:00,
2013-02-03 11:37:00,59.9,30.0,30.27,North,6,7.0,11.0,32,0.00,,---,0.00,VWS V14.01,2013-02-03 17:37:00,
2013-02-03 11:42:00,60.2,28.7,30.27,North,5,5.0,8.0,30,0.00,,---,0.00,VWS V14.01,2013-02-03 17:42:00,
2013-02-03 11:47:00,60.2,27.9,30.27,NNE,13,7.0,10.0,29,0.00,,---,0.00,VWS V14.01,2013-02-03 17:47:00,
2013-02-03 11:52:00,60.4,28.9,30.27,NW,323,3.0,7.0,30,0.00,,---,0.00,VWS V14.01,2013-02-03 17:52:00,
2013-02-03 11:57:00,61.2,29.5,30.26,WNW,284,2.0,5.0,30,0.00,,---,0.00,VWS V14.01,2013-02-03 17:57:00,
2013-02-03 12:02:00,61.5,28.1,30.26,NNW,335,1.0,3.0,28,0.00,,---,0.00,VWS V14.01,2013-02-03 18:02:00,
2013-02-03 12:07:00,61.6,28.2,30.26,North,8,6.0,7.0,28,0.00,,---,0.00,VWS V14.01,2013-02-03 18:07:00,
2013-02-03 12:12:00,61.6,28.2,30.25,North,11,8.0,8.0,28,0.00,,---,0.00,VWS V14.01,2013-02-03 18:12:00,
2013-02-03 12:17:00,61.3,27.1,30.25,North,11,7.0,12.0,27,0.00,,---,0.00,VWS V14.01,2013-02-03 18:17:00,
2013-02-03 12:22:00,61.2,27.0,30.25,NE,44,1.0,6.0,27,0.00,,---,0.00,VWS V14.01,2013-02-03 18:22:00,
2013-02-03 12:27:00,61.3,27.1,30.25,West,280,2.0,5.0,27,0.00,,---,0.00,VWS V14.01,2013-02-03 18:27:00,
2013-02-03 12:32:00,61.6,27.3,30.24,NNW,327,2.0,3.0,27,0.00,,---,0.00,VWS V14.01,2013-02-03 18:32:00,
2013-02-03 12:37:00,62.1,25.9,30.24,WNW,303,2.0,6.0,25,0.00,,---,0.00,VWS V14.01,2013-02-03 18:37:00,
2013-02-03 12:42:00,62.4,26.1,30.23,NE,36,5.0,5.0,25,0.00,,---,0.00,VWS V14.01,2013-02-03 18:42:00,
2013-02-03 12:47:00,62.9,25.6,30.23,North,3,3.0,5.0,24,0.00,,---,0.00,VWS V14.01,2013-02-03 18:47:00,
2013-02-03 12:52:00,63.1,26.7,30.23,North,8,3.0,10.0,25,0.00,,---,0.00,VWS V14.01,2013-02-03 18:52:00,
2013-02-03 12:57:00,62.7,24.4,30.23,North,349,3.0,8.0,23,0.00,,---,0.00,VWS V14.01,2013-02-03 18:57:00,
2013-02-03 13:02:00,62.9,25.6,30.22,NNW,330,3.0,6.0,24,0.00,,---,0.00,VWS V14.01,2013-02-03 19:02:00,
2013-02-03 13:07:00,63.4,26.0,30.22,NE,39,5.0,6.0,24,0.00,,---,0.00,VWS V14.01,2013-02-03 19:07:00,
2013-02-03 13:12:00,63.4,25.0,30.21,NNE,22,10.0,11.0,23,0.00,,---,0.00,VWS V14.01,2013-02-03 19:12:00,
2013-02-03 13:17:00,63.1,24.7,30.21,NNE,18,8.0,12.0,23,0.00,,---,0.00,VWS V14.01,2013-02-03 19:17:00,
2013-02-03 13:22:00,62.6,24.3,30.20,NE,53,5.0,7.0,23,0.00,,---,0.00,VWS V14.01,2013-02-03 19:22:00,
2013-02-03 13:27:00,62.6,24.3,30.19,NE,43,5.0,6.0,23,0.00,,---,0.00,VWS V14.01,2013-02-03 19:27:00,
2013-02-03 13:32:00,62.9,24.6,30.19,WNW,301,1.0,3.0,23,0.00,,---,0.00,VWS V14.01,2013-02-03 19:32:00,
2013-02-03 13:37:00,64.0,24.4,30.19,NNW,342,1.0,7.0,22,0.00,,---,0.00,VWS V14.01,2013-02-03 19:37:00,
2013-02-03 13:42:00,64.2,25.7,30.18,NNW,344,2.0,2.0,23,0.00,,---,0.00,VWS V14.01,2013-02-03 19:42:00,
2013-02-03 13:47:00,64.7,26.1,30.18,North,1,5.0,10.0,23,0.00,,---,0.00,VWS V14.01,2013-02-03 19:47:00,
2013-02-03 13:52:00,64.7,27.1,30.18,North,9,5.0,8.0,24,0.00,,---,0.00,VWS V14.01,2013-02-03 19:52:00,
2013-02-03 13:57:00,64.3,25.7,30.17,NNE,25,2.0,3.0,23,0.00,,---,0.00,VWS V14.01,2013-02-03 19:57:00,
2013-02-03 14:02:00,64.8,25.1,30.17,West,277,5.0,6.0,22,0.00,,---,0.00,VWS V14.01,2013-02-03 20:02:00,
2013-02-03 14:07:00,64.8,25.1,30.17,West,277,6.0,8.0,22,0.00,,---,0.00,VWS V14.01,2013-02-03 20:07:00,
2013-02-03 14:12:00,64.8,26.2,30.17,WNW,284,8.0,8.0,23,0.00,,---,0.00,VWS V14.01,2013-02-03 20:12:00,
2013-02-03 14:17:00,65.0,24.1,30.17,WNW,301,5.0,7.0,21,0.00,,---,0.00,VWS V14.01,2013-02-03 20:17:00,
2013-02-03 14:22:00,65.0,25.3,30.16,West,265,2.0,2.0,22,0.00,,---,0.00,VWS V14.01,2013-02-03 20:22:00,
2013-02-03 14:27:00,65.3,25.5,30.16,North,11,3.0,6.0,22,0.00,,---,0.00,VWS V14.01,2013-02-03 20:27:00,
2013-02-03 14:32:00,65.3,24.4,30.16,NNE,12,5.0,6.0,21,0.00,,---,0.00,VWS V14.01,2013-02-03 20:32:00,
2013-02-03 14:37:00,65.0,23.0,30.16,North,356,2.0,5.0,20,0.00,,---,0.00,VWS V14.01,2013-02-03 20:37:00,
2013-02-03 14:42:00,65.3,24.4,30.15,NW,315,3.0,8.0,21,0.00,,---,0.00,VWS V14.01,2013-02-03 20:42:00,
2013-02-03 14:47:00,65.8,23.6,30.15,WNW,301,1.0,3.0,20,0.00,,---,0.00,VWS V14.01,2013-02-03 20:47:00,
2013-02-03 14:52:00,66.1,23.9,30.15,NNW,328,2.0,2.0,20,0.00,,---,0.00,VWS V14.01,2013-02-03 20:52:00,
2013-02-03 14:57:00,66.1,23.9,30.15,NW,317,3.0,6.0,20,0.00,,---,0.00,VWS V14.01,2013-02-03 20:57:00,
2013-02-03 15:02:00,66.1,22.7,30.14,NW,318,2.0,2.0,19,0.00,,---,0.00,VWS V14.01,2013-02-03 21:02:00,
2013-02-03 15:07:00,66.4,24.1,30.14,NW,318,0.0,3.0,20,0.00,,---,0.00,VWS V14.01,2013-02-03 21:07:00,
2013-02-03 15:12:00,66.4,24.1,30.14,SSW,203,1.0,3.0,20,0.00,,---,0.00,VWS V14.01,2013-02-03 21:12:00,
2013-02-03 15:17:00,66.3,24.1,30.13,NNW,345,5.0,5.0,20,0.00,,---,0.00,VWS V14.01,2013-02-03 21:17:00,
2013-02-03 15:22:00,66.1,23.9,30.13,NW,325,1.0,1.0,20,0.00,,---,0.00,VWS V14.01,2013-02-03 21:22:00,
2013-02-03 15:27:00,66.0,25.0,30.13,NNW,331,1.0,2.0,21,0.00,,---,0.00,VWS V14.01,2013-02-03 21:27:00,
2013-02-03 15:32:00,65.6,24.6,30.13,ENE,63,3.0,3.0,21,0.00,,---,0.00,VWS V14.01,2013-02-03 21:32:00,
2013-02-03 15:37:00,66.0,23.8,30.13,ENE,61,0.0,3.0,20,0.00,,---,0.00,VWS V14.01,2013-02-03 21:37:00,
2013-02-03 15:42:00,66.4,25.3,30.13,West,275,3.0,5.0,21,0.00,,---,0.00,VWS V14.01,2013-02-03 21:42:00,
2013-02-03 15:47:00,66.4,24.1,30.13,WSW,255,3.0,5.0,20,0.00,,---,0.00,VWS V14.01,2013-02-03 21:47:00,
2013-02-03 15:52:00,66.6,25.5,30.12,SSW,211,2.0,6.0,21,0.00,,---,0.00,VWS V14.01,2013-02-03 21:52:00,
2013-02-03 15:57:00,66.6,24.3,30.12,SSW,211,2.0,2.0,20,0.00,,---,0.00,VWS V14.01,2013-02-03 21:57:00,
2013-02-03 16:02:00,66.8,25.6,30.12,SSW,207,5.0,5.0,21,0.00,,---,0.00,VWS V14.01,2013-02-03 22:02:00,
2013-02-03 16:07:00,66.4,25.3,30.12,SSW,207,0.0,0.0,21,0.00,,---,0.00,VWS V14.01,2013-02-03 22:07:00,
2013-02-03 16:12:00,66.8,25.6,30.12,SSW,207,0.0,1.0,21,0.00,,---,0.00,VWS V14.01,2013-02-03 22:12:00,
2013-02-03 16:17:00,66.9,24.5,30.12,SSW,207,2.0,2.0,20,0.00,,---,0.00,VWS V14.01,2013-02-03 22:17:00,
2013-02-03 16:22:00,66.9,24.5,30.11,SSW,207,1.0,1.0,20,0.00,,---,0.00,VWS V14.01,2013-02-03 22:22:00,
2013-02-03 16:27:00,66.8,24.5,30.11,SSW,207,0.0,2.0,20,0.00,,---,0.00,VWS V14.01,2013-02-03 22:27:00,
2013-02-03 16:32:00,66.8,25.6,30.11,WSW,245,1.0,2.0,21,0.00,,---,0.00,VWS V14.01,2013-02-03 22:32:00,
2013-02-03 16:37:00,66.8,24.5,30.11,WSW,246,1.0,3.0,20,0.00,,---,0.00,VWS V14.01,2013-02-03 22:37:00,
2013-02-03 16:42:00,66.8,26.8,30.10,WSW,246,1.0,1.0,22,0.00,,---,0.00,VWS V14.01,2013-02-03 22:42:00,
2013-02-03 16:47:00,66.8,24.5,30.10,WSW,246,2.0,2.0,20,0.00,,---,0.00,VWS V14.01,2013-02-03 22:47:00,
2013-02-03 16:52:00,66.4,27.5,30.10,WSW,246,2.0,2.0,23,0.00,,---,0.00,VWS V14.01,2013-02-03 22:52:00,
2013-02-03 16:57:00,66.1,25.1,30.10,WSW,246,1.0,1.0,21,0.00,,---,0.00,VWS V14.01,2013-02-03 22:57:00,
2013-02-03 17:02:00,66.0,23.8,30.10,WSW,246,0.0,0.0,20,0.00,,---,0.00,VWS V14.01,2013-02-03 23:02:00,
2013-02-03 17:07:00,66.3,28.5,30.09,WSW,246,0.0,1.0,24,0.00,,---,0.00,VWS V14.01,2013-02-03 23:07:00,
2013-02-03 17:12:00,65.5,31.6,30.09,WSW,246,1.0,1.0,28,0.00,,---,0.00,VWS V14.01,2013-02-03 23:12:00,
2013-02-03 17:17:00,64.5,34.0,30.09,WSW,246,0.0,0.0,32,0.00,,---,0.00,VWS V14.01,2013-02-03 23:17:00,
2013-02-03 17:22:00,63.7,37.0,30.09,WSW,246,1.0,1.0,37,0.00,,---,0.00,VWS V14.01,2013-02-03 23:22:00,
2013-02-03 17:27:00,62.4,36.5,30.09,WSW,246,0.0,1.0,38,0.00,,---,0.00,VWS V14.01,2013-02-03 23:27:00,
2013-02-03 17:32:00,61.8,38.5,30.09,WSW,246,0.0,0.0,42,0.00,,---,0.00,VWS V14.01,2013-02-03 23:32:00,
2013-02-03 17:37:00,59.9,36.8,30.09,WSW,246,0.0,0.0,42,0.00,,---,0.00,VWS V14.01,2013-02-03 23:37:00,
2013-02-03 17:42:00,58.9,39.8,30.09,WSW,246,0.0,0.0,49,0.00,,---,0.00,VWS V14.01,2013-02-03 23:42:00,
2013-02-03 17:47:00,57.6,39.6,30.09,WSW,246,0.0,0.0,51,0.00,,---,0.00,VWS V14.01,2013-02-03 23:47:00,
2013-02-03 17:52:00,56.7,39.8,30.09,WSW,246,0.0,0.0,53,0.00,,---,0.00,VWS V14.01,2013-02-03 23:52:00,
2013-02-03 17:57:00,55.0,39.2,30.09,WSW,246,0.0,0.0,55,0.00,,---,0.00,VWS V14.01,2013-02-03 23:57:00,
2013-02-03 18:02:00,54.2,37.9,30.09,WSW,246,0.0,0.0,54,0.00,,---,0.00,VWS V14.01,2013-02-04 00:02:00,
2013-02-03 18:07:00,53.5,37.3,30.08,WSW,246,0.0,0.0,54,0.00,,---,0.00,VWS V14.01,2013-02-04 00:07:00,
2013-02-03 18:12:00,52.2,36.1,30.08,WSW,246,0.0,0.0,54,0.00,,---,0.00,VWS V14.01,2013-02-04 00:12:00,
2013-02-03 18:17:00,51.3,37.9,30.08,WSW,246,0.0,0.0,60,0.00,,---,0.00,VWS V14.01,2013-02-04 00:17:00,
2013-02-03 18:22:00,50.5,38.0,30.09,WSW,246,0.0,0.0,62,0.00,,---,0.00,VWS V14.01,2013-02-04 00:22:00,
2013-02-03 18:27:00,49.6,37.5,30.09,WSW,246,0.0,0.0,63,0.00,,---,0.00,VWS V14.01,2013-02-04 00:27:00,
2013-02-03 18:32:00,48.9,36.9,30.08,WSW,246,0.0,0.0,63,0.00,,---,0.00,VWS V14.01,2013-02-04 00:32:00,
2013-02-03 18:37:00,48.2,37.8,30.08,WSW,246,0.0,0.0,67,0.00,,---,0.00,VWS V14.01,2013-02-04 00:37:00,
2013-02-03 18:42:00,47.6,37.6,30.08,WSW,246,0.0,0.0,68,0.00,,---,0.00,VWS V14.01,2013-02-04 00:42:00,
2013-02-03 18:47:00,46.7,37.5,30.08,WSW,246,0.0,0.0,70,0.00,,---,0.00,VWS V14.01,2013-02-04 00:47:00,
2013-02-03 18:52:00,46.7,37.5,30.09,WSW,246,0.0,0.0,70,0.00,,---,0.00,VWS V14.01,2013-02-04 00:52:00,
2013-02-03 18:57:00,45.4,36.2,30.09,WSW,246,0.0,0.0,70,0.00,,---,0.00,VWS V14.01,2013-02-04 00:57:00,
2013-02-03 19:02:00,44.9,35.7,30.09,WSW,246,0.0,0.0,70,0.00,,---,0.00,VWS V14.01,2013-02-04 01:02:00,
2013-02-03 19:07:00,44.5,35.3,30.09,WSW,246,0.0,0.0,70,0.00,,---,0.00,VWS V14.01,2013-02-04 01:07:00,
2013-02-03 19:12:00,44.2,35.4,30.09,WSW,246,0.0,0.0,71,0.00,,---,0.00,VWS V14.01,2013-02-04 01:12:00,
2013-02-03 19:17:00,43.8,35.7,30.09,WSW,246,0.0,0.0,73,0.00,,---,0.00,VWS V14.01,2013-02-04 01:17:00,
2013-02-03 19:22:00,43.6,35.5,30.09,WSW,246,0.0,0.0,73,0.00,,---,0.00,VWS V14.01,2013-02-04 01:22:00,
2013-02-03 19:27:00,43.2,35.8,30.09,WSW,246,0.0,0.0,75,0.00,,---,0.00,VWS V14.01,2013-02-04 01:27:00,
2013-02-03 19:32:00,43.2,35.8,30.09,WSW,246,0.0,0.0,75,0.00,,---,0.00,VWS V14.01,2013-02-04 01:32:00,
2013-02-03 19:37:00,42.5,35.2,30.08,WSW,246,0.0,0.0,75,0.00,,---,0.00,VWS V14.01,2013-02-04 01:37:00,
2013-02-03 19:42:00,42.5,35.2,30.09,WSW,246,0.0,0.0,75,0.00,,---,0.00,VWS V14.01,2013-02-04 01:42:00,
2013-02-03 19:47:00,42.1,35.1,30.09,WSW,246,0.0,0.0,76,0.00,,---,0.00,VWS V14.01,2013-02-04 01:47:00,
2013-02-03 19:52:00,41.8,34.5,30.09,WSW,246,0.0,0.0,75,0.00,,---,0.00,VWS V14.01,2013-02-04 01:52:00,
2013-02-03 19:57:00,41.6,34.3,30.09,WSW,246,0.0,0.0,75,0.00,,---,0.00,VWS V14.01,2013-02-04 01:57:00,
2013-02-03 20:02:00,41.5,34.2,30.08,WSW,246,0.0,0.0,75,0.00,,---,0.00,VWS V14.01,2013-02-04 02:02:00,
2013-02-03 20:07:00,41.5,34.2,30.08,WSW,246,0.0,0.0,75,0.00,,---,0.00,VWS V14.01,2013-02-04 02:07:00,
2013-02-03 20:12:00,41.2,33.9,30.08,WSW,246,0.0,0.0,75,0.00,,---,0.00,VWS V14.01,2013-02-04 02:12:00,
2013-02-03 20:17:00,40.9,33.3,30.08,WSW,246,0.0,0.0,74,0.00,,---,0.00,VWS V14.01,2013-02-04 02:17:00,
2013-02-03 20:22:00,40.9,33.3,30.08,WSW,246,0.0,0.0,74,0.00,,---,0.00,VWS V14.01,2013-02-04 02:22:00,
2013-02-03 20:27:00,40.8,33.5,30.08,WSW,246,0.0,0.0,75,0.00,,---,0.00,VWS V14.01,2013-02-04 02:27:00,
2013-02-03 20:32:00,40.6,33.3,30.08,WSW,246,0.0,0.0,75,0.00,,---,0.00,VWS V14.01,2013-02-04 02:32:00,
2013-02-03 20:37:00,40.6,33.6,30.08,WSW,246,0.0,0.0,76,0.00,,---,0.00,VWS V14.01,2013-02-04 02:37:00,
2013-02-03 20:42:00,40.5,33.5,30.08,WSW,246,0.0,0.0,76,0.00,,---,0.00,VWS V14.01,2013-02-04 02:42:00,
2013-02-03 20:47:00,40.5,33.5,30.08,WSW,246,0.0,0.0,76,0.00,,---,0.00,VWS V14.01,2013-02-04 02:47:00,
2013-02-03 20:52:00,40.3,33.7,30.08,WSW,246,0.0,0.0,77,0.00,,---,0.00,VWS V14.01,2013-02-04 02:52:00,
2013-02-03 20:57:00,40.2,33.6,30.08,WSW,246,0.0,0.0,77,0.00,,---,0.00,VWS V14.01,2013-02-04 02:57:00,
2013-02-03 21:02:00,40.2,33.6,30.07,WSW,246,0.0,0.0,77,0.00,,---,0.00,VWS V14.01,2013-02-04 03:02:00,
2013-02-03 21:07:00,40.2,33.6,30.07,WSW,246,0.0,0.0,77,0.00,,---,0.00,VWS V14.01,2013-02-04 03:07:00,
2013-02-03 21:12:00,40.2,33.6,30.07,WSW,246,0.0,0.0,77,0.00,,---,0.00,VWS V14.01,2013-02-04 03:12:00,
2013-02-03 21:17:00,40.2,34.2,30.07,WSW,246,0.0,0.0,79,0.00,,---,0.00,VWS V14.01,2013-02-04 03:17:00,
2013-02-03 21:22:00,40.2,34.2,30.07,WSW,246,0.0,0.0,79,0.00,,---,0.00,VWS V14.01,2013-02-04 03:22:00,
2013-02-03 21:27:00,40.3,34.3,30.07,WSW,246,0.0,0.0,79,0.00,,---,0.00,VWS V14.01,2013-02-04 03:27:00,
2013-02-03 21:32:00,40.3,34.3,30.07,WSW,246,0.0,1.0,79,0.00,,---,0.00,VWS V14.01,2013-02-04 03:32:00,
2013-02-03 21:37:00,40.6,34.6,30.06,WSW,246,0.0,0.0,79,0.00,,---,0.00,VWS V14.01,2013-02-04 03:37:00,
2013-02-03 21:42:00,40.8,34.8,30.06,WSW,246,0.0,0.0,79,0.00,,---,0.00,VWS V14.01,2013-02-04 03:42:00,
2013-02-03 21:47:00,40.8,34.2,30.06,WSW,246,0.0,0.0,77,0.00,,---,0.00,VWS V14.01,2013-02-04 03:47:00,
2013-02-03 21:52:00,40.9,34.3,30.05,WSW,246,0.0,0.0,77,0.00,,---,0.00,VWS V14.01,2013-02-04 03:52:00,
2013-02-03 21:57:00,41.2,34.5,30.05,WSW,246,0.0,0.0,77,0.00,,---,0.00,VWS V14.01,2013-02-04 03:57:00,
2013-02-03 22:02:00,41.3,34.0,30.05,WSW,246,0.0,0.0,75,0.00,,---,0.00,VWS V14.01,2013-02-04 04:02:00,
2013-02-03 22:07:00,41.6,34.6,30.05,WSW,246,0.0,0.0,76,0.00,,---,0.00,VWS V14.01,2013-02-04 04:07:00,
2013-02-03 22:12:00,41.6,34.6,30.04,WSW,246,0.0,0.0,76,0.00,,---,0.00,VWS V14.01,2013-02-04 04:12:00,
2013-02-03 22:17:00,41.9,34.9,30.04,WSW,246,0.0,0.0,76,0.00,,---,0.00,VWS V14.01,2013-02-04 04:17:00,
2013-02-03 22:22:00,42.1,35.1,30.04,WSW,246,0.0,0.0,76,0.00,,---,0.00,VWS V14.01,2013-02-04 04:22:00,
2013-02-03 22:27:00,42.2,35.2,30.04,WSW,246,0.0,0.0,76,0.00,,---,0.00,VWS V14.01,2013-02-04 04:27:00,
2013-02-03 22:32:00,42.3,33.6,30.04,WSW,246,0.0,0.0,71,0.00,,---,0.00,VWS V14.01,2013-02-04 04:32:00,
2013-02-03 22:37:00,42.9,33.4,30.03,WSW,246,0.0,0.0,69,0.00,,---,0.00,VWS V14.01,2013-02-04 04:37:00,
2013-02-03 22:42:00,43.1,33.6,30.03,WSW,246,0.0,0.0,69,0.00,,---,0.00,VWS V14.01,2013-02-04 04:42:00,
2013-02-03 22:47:00,44.1,33.1,30.03,SW,231,1.0,1.0,65,0.00,,---,0.00,VWS V14.01,2013-02-04 04:47:00,
2013-02-03 22:52:00,44.6,32.8,30.03,SW,231,1.0,1.0,63,0.00,,---,0.00,VWS V14.01,2013-02-04 04:52:00,
2013-02-03 22:57:00,46.1,34.2,30.02,SW,218,1.0,1.0,63,0.00,,---,0.00,VWS V14.01,2013-02-04 04:57:00,
2013-02-03 23:00:00,46.7,34.8,30.02,SSW,197,3.0,3.0,63,0.00,,---,0.00,VWS V14.01,2013-02-04 05:00:00,
2013-02-03 23:01:00,46.7,34.8,30.02,SSW,197,3.0,3.0,63,0.00,,---,0.00,VWS V14.01,2013-02-04 05:01:00,
2013-02-03 23:06:00,48.6,31.8,30.02,SSW,194,0.0,1.0,52,0.00,,---,0.00,VWS V14.01,2013-02-04 05:06:00,
2013-02-03 23:11:00,49.4,31.1,30.01,SSE,163,0.0,3.0,49,0.00,,---,0.00,VWS V14.01,2013-02-04 05:11:00,
2013-02-03 23:16:00,50.4,32.0,30.01,SE,139,2.0,2.0,49,0.00,,---,0.00,VWS V14.01,2013-02-04 05:16:00,
2013-02-03 23:21:00,51.0,30.4,30.01,SE,139,1.0,2.0,45,0.00,,---,0.00,VWS V14.01,2013-02-04 05:21:00,
2013-02-03 23:26:00,51.7,29.9,30.01,ESE,123,2.0,3.0,43,0.00,,---,0.00,VWS V14.01,2013-02-04 05:26:00,
2013-02-03 23:31:00,52.2,30.4,30.00,SE,133,2.0,3.0,43,0.00,,---,0.00,VWS V14.01,2013-02-04 05:31:00,
2013-02-03 23:36:00,52.5,30.1,30.00,East,95,3.0,3.0,42,0.00,,---,0.00,VWS V14.01,2013-02-04 05:36:00,
2013-02-03 23:41:00,52.8,29.8,30.00,SE,126,2.0,2.0,41,0.00,,---,0.00,VWS V14.01,2013-02-04 05:41:00,
2013-02-03 23:46:00,52.9,29.9,30.00,SE,129,3.0,5.0,41,0.00,,---,0.00,VWS V14.01,2013-02-04 05:46:00,
2013-02-03 23:51:00,52.9,29.9,30.00,SE,132,2.0,3.0,41,0.00,,---,0.00,VWS V14.01,2013-02-04 05:51:00,
2013-02-03 23:56:00,53.1,30.0,30.00,SE,139,5.0,5.0,41,0.00,,---,0.00,VWS V14.01,2013-02-04 05:56:00,